#timestamp,LO_Frequency,Hit 
1498748415.3,286046922.2,N
1498748435.1,286046922.2,N
1498748455.8,286046922.3,N
1498748475.7,286046922.4,N
1498748495.5,286046921.2,N
1498748515.3,286046918.4,N
1498748535.2,286046921.1,N
1498748555.9,286046920.1,N
1498748575.7,286046921.6,N
1498748595.6,286046922.1,N
1498748615.4,286046921.5,N
1498748635.2,286046918.1,N
1498748655.1,286046916.9,N
1498748656.0,286046916.9,N
1498748675.8,286046917.2,N
1498748695.6,286046915.5,N
1498748715.5,286046914.2,N
1498748735.3,286046914.1,N
1498748755.1,286046911.7,N
1498748775.8,286046913.1,N
1498748795.7,286046909.1,N
1498748815.5,286046908.8,N
1498748835.3,286046908.7,N
1498748855.2,286046909.9,N
1498748875.9,286046907.2,N
1498748895.7,286046907.3,N
1498748915.6,286046908.1,N
1498748935.4,286046905.9,N
1498748955.2,286046906.1,N
1498748975.1,286046906.8,N
1498748976.0,286046906.8,N
1498748995.8,286046906.7,N
1498749015.6,286046906.6,N
1498749035.4,286046906.4,N
1498749055.3,286046904.1,N
1498749075.1,286046906.7,N
1498749095.8,286046904.1,N
1498749115.7,286046904.0,N
1498749135.5,286046905.4,N
1498749155.3,286046905.4,N
1498749175.2,286046907.4,N
1498749195.9,286046909.7,N
1498749215.7,286046909.8,N
1498749235.6,286046907.6,N
1498749255.4,286046907.9,N
1498749275.2,286046908.3,N
1498749295.1,286046907.6,N
1498749296.0,286046907.6,N
1498749315.8,286046907.0,N
1498749335.6,286046909.1,N
1498749355.4,286046908.1,N
1498749375.3,286046910.0,N
1498749395.1,286046907.7,N
1498749415.8,286046908.0,N
1498749435.7,286046907.5,N
1498749455.5,286046907.4,N
1498749475.3,286046909.5,N
1498749495.2,286046905.9,N
1498749515.9,286046908.0,N
1498749535.7,286046907.1,N
1498749555.6,286046908.0,N
1498749575.4,286046905.4,N
1498749595.2,286046909.5,N
1498749615.1,286046907.8,N
1498749616.0,286046907.8,N
1498749635.8,286046905.5,N
1498749655.6,286046907.6,N
1498749675.5,286046907.5,N
1498749695.3,286046906.5,N
1498749715.1,286046907.5,N
1498749735.8,286046905.8,N
1498749755.7,286046908.0,N
1498749775.5,286046905.7,N
1498749795.3,286046907.4,N
1498749815.2,286046907.4,N
1498749835.0,286046909.5,N
1498749835.9,286046909.5,N
1498749855.7,286046909.5,N
1498749875.6,286046908.4,N
1498749895.4,286046905.3,N
1498749915.2,286046907.5,N
1498749935.1,286046905.7,N
1498749936.0,286046905.7,N
1498749955.8,286046905.6,N
1498749975.6,286046905.7,N
1498749995.5,286046906.2,N
1498750015.3,286046904.6,N
1498750035.1,286046906.8,N
1498750055.9,286046902.2,N
1498750075.7,286046902.1,N
1498750095.5,286046905.2,N
1498750115.4,286046905.0,N
1498750135.2,286046902.7,N
1498750155.0,286046902.3,N
1498750155.9,286046902.3,N
1498750175.8,286046903.0,N
1498750195.6,286046905.1,N
1498750215.4,286046903.2,N
1498750235.2,286046903.2,N
1498750255.1,286046901.0,N
1498750256.0,286046901.0,N
1498750275.8,286046901.1,N
1498750295.6,286046901.3,N
1498750315.5,286046902.9,N
1498750335.3,286046902.5,N
1498750355.1,286046904.8,N
1498750375.9,286046902.4,N
1498750395.7,286046903.7,N
1498750415.5,286046904.4,N
1498750435.4,286046904.0,N
1498750455.2,286046904.4,N
1498750475.0,286046903.9,N
1498750475.9,286046903.9,N
1498750495.8,286046906.1,N
1498750515.6,286046906.0,N
1498750535.4,286046905.5,N
1498750555.3,286046908.4,N
1498750575.1,286046908.2,N
1498750576.0,286046908.2,N
1498750595.8,286046905.9,N
1498750615.6,286046906.3,N
1498750635.5,286046903.7,N
1498750655.3,286046904.5,N
1498750675.1,286046905.2,N
1498750695.9,286046903.4,N
1498750715.7,286046901.6,N
1498750735.5,286046902.0,N
1498750755.4,286046899.6,N
1498750775.2,286046900.0,N
1498750795.0,286046897.9,N
1498750795.9,286046897.9,N
1498750815.8,286046896.0,N
1498750835.6,286046896.1,N
1498750855.4,286046895.7,N
1498750875.3,286046896.1,N
1498750895.1,286046898.0,N
1498750896.0,286046898.0,N
1498750915.8,286046897.9,N
1498750935.7,286046898.5,N
1498750955.5,286046898.8,N
1498750975.3,286046897.1,N
1498750995.1,286046894.5,N
1498751015.9,286046897.2,N
1498751035.7,286046896.5,N
1498751055.5,286046895.7,N
1498751075.4,286046898.1,N
1498751095.2,286046896.2,N
1498751115.0,286046898.5,N
1498751115.9,286046898.5,N
1498751135.8,286046896.6,N
1498751155.6,286046894.8,N
1498751175.4,286046895.0,N
1498751195.3,286046892.9,N
1498751215.1,286046892.8,N
1498751216.0,286046892.8,N
1498751235.8,286046892.5,N
1498751255.7,286046893.8,N
1498751275.5,286046889.3,N
1498751295.3,286046889.7,N
1498751315.1,286046892.2,N
1498751335.9,286046892.2,N
1498751355.7,286046891.5,N
1498751375.5,286046891.1,N
1498751395.4,286046891.0,N
1498751415.2,286046893.3,N
1498751435.0,286046893.3,N
1498751435.9,286046893.3,N
1498751455.8,286046893.5,N
1498751475.6,286046894.0,N
1498751495.4,286046890.3,N
1498751515.3,286046890.4,N
1498751535.1,286046888.1,N
1498751536.0,286046888.1,N
1498751555.8,286046889.0,N
1498751575.7,286046888.4,N
1498751595.5,286046888.2,N
1498751615.3,286046888.2,N
1498751635.1,286046890.0,N
1498751655.9,286046890.0,N
1498751675.7,286046889.6,N
1498751695.5,286046889.3,N
1498751715.4,286046892.0,N
1498751735.2,286046891.2,N
1498751755.0,286046892.4,N
1498751755.9,286046892.4,N
1498751775.8,286046889.3,N
1498751795.6,286046887.7,N
1498751815.4,286046890.3,N
1498751835.3,286046890.5,N
1498751855.1,286046892.2,N
1498751856.0,286046892.2,N
1498751875.8,286046893.4,N
1498751895.7,286046892.2,N
1498751915.5,286046891.6,N
1498751935.3,286046892.2,N
1498751955.1,286046887.7,N
1498751975.9,286046890.5,N
1498751995.7,286046890.4,N
